Location: Macksville High School
(37.9611°N, 99.9654°W)
Time: 01:33:38
(UTC+00:00)

FALCON 9 DEB - Pass Details

Date: 17 January 2021
Orbit: 424 x 436 km, 53.0° (Epoch: 07 March)

Event Time Altitude Azimuth Distance (km) Brightness Sun altitude
Rises 12:54:40 0° 219° (SW) 2,364 6.6 -11.6°
Reaches altitude 10° 12:56:46 10° 215° (SW) 1,504 5.7 -11.3°
Maximum altitude 13:00:06 59° 135° (SE) 494 3.7 -10.6°
Drops below altitude 10° 13:03:27 10° 55° (NE) 1,517 6.4 -10.0°
Sets 13:05:34 0° 52° (NE) 2,388 7.4 -9.6°
